Location: Albuquerque Trailhead
(34.7934°N, 106.3736°W)
Time: 05:35:08
(UTC+00:00)

Meteor 2-21 - Pass Details

Date: 20 June 2021
Orbit: 934 x 967 km, 82.5° (Epoch: 29 July)

Event Time Altitude Azimuth Distance (km) Brightness Sun altitude
Exits shadow 09:32:49 38° 183° (S) 1,409 4.9 -22.3°
Maximum altitude 09:35:21 87° 94° (E) 963 4.4 -22.0°
Drops below altitude 10° 09:41:33 10° 7° (N) 2,703 7.7 -21.2°
Sets 09:44:04 0° 8° (N) 3,656 8.5 -20.9°
